• In Russia
  • List of Countries
  • For 7 days
  • Water Temperature
  • Weather Map
  • Weather Widgets
  • user-avatar
    Login

    Hourly Weather Lubango

    Today, 25 January, Saturday

    Time Temperature Precipitation Wind Pressure Humidity
    00:00 +16°C° 0.5 mm 0 mps 608 mmHg 90%
    01:00 +16°C° 0.5 mm 0 mps 608 mmHg 89%
    02:00 +15°C° 0.3 mm 0 mps 608 mmHg 89%
    03:00 +15°C° 0.3 mm 0 mps 607 mmHg 89%
    04:00 +15°C° 0.3 mm 0 mps 607 mmHg 90%
    05:00 +16°C° 0 mm 0 mps 608 mmHg 89%
    06:00 +16°C° 0 mm 0 mps 608 mmHg 88%
    07:00 +16°C° 0 mm 0 mps 609 mmHg 87%
    08:00 +20°C° 0.4 mm 1 mps 609 mmHg 81%
    09:00 +21°C° 0.4 mm 1 mps 610 mmHg 76%
    10:00 +23°C° 0.4 mm 2 mps 610 mmHg 70%
    11:00 +23°C° 0.8 mm 2 mps 610 mmHg 67%
    12:00 +24°C° 0.8 mm 2 mps 610 mmHg 64%
    13:00 +25°C° 0.8 mm 2 mps 609 mmHg 61%
    14:00 +25°C° 1.1 mm 2 mps 609 mmHg 63%
    15:00 +24°C° 1.1 mm 2 mps 609 mmHg 65%
    16:00 +24°C° 1.1 mm 2 mps 608 mmHg 67%
    17:00 +21°C° 0.6 mm 2 mps 608 mmHg 75%
    18:00 +21°C° 0.6 mm 1 mps 608 mmHg 82%
    19:00 +19°C° 0.6 mm 1 mps 607 mmHg 90%
    20:00 +19°C° 0.2 mm 1 mps 608 mmHg 91%
    21:00 +18°C° 0.2 mm 1 mps 608 mmHg 93%
    22:00 +16°C° 0.2 mm 0 mps 608 mmHg 94%
    23:00 +16°C° 0.4 mm 0 mps 608 mmHg 95%

    Tomorrow, 26 January, Sunday

    Time Temperature Precipitation Wind Pressure Humidity
    00:00 +15°C° 0.4 mm 0 mps 608 mmHg 95%
    01:00 +15°C° 0.4 mm 0 mps 608 mmHg 96%
    02:00 +15°C° 0.2 mm 0 mps 608 mmHg 94%
    03:00 +15°C° 0.2 mm 0 mps 607 mmHg 93%
    04:00 +15°C° 0.2 mm 0 mps 607 mmHg 91%
    05:00 +15°C° 0 mm 0 mps 608 mmHg 89%
    06:00 +16°C° 0 mm 0 mps 608 mmHg 88%
    07:00 +16°C° 0 mm 0 mps 609 mmHg 86%
    08:00 +20°C° 0.3 mm 1 mps 609 mmHg 80%
    09:00 +22°C° 0.3 mm 1 mps 610 mmHg 74%
    10:00 +23°C° 0.3 mm 2 mps 610 mmHg 68%
    11:00 +24°C° 1 mm 2 mps 610 mmHg 66%
    12:00 +24°C° 1 mm 2 mps 610 mmHg 65%
    13:00 +25°C° 1 mm 2 mps 610 mmHg 63%
    14:00 +24°C° 1.2 mm 2 mps 609 mmHg 66%
    15:00 +24°C° 1.2 mm 2 mps 608 mmHg 69%
    16:00 +22°C° 1.2 mm 3 mps 608 mmHg 72%
    17:00 +20°C° 0.5 mm 2 mps 607 mmHg 79%
    18:00 +19°C° 0.5 mm 2 mps 607 mmHg 85%
    19:00 +19°C° 0.5 mm 1 mps 607 mmHg 92%
    20:00 +18°C° 0.2 mm 1 mps 608 mmHg 92%
    21:00 +18°C° 0.2 mm 1 mps 608 mmHg 92%
    22:00 +16°C° 0.2 mm 1 mps 608 mmHg 93%
    23:00 +16°C° 0.1 mm 1 mps 608 mmHg 93%

    Day after tomorrow, 27 January, Monday

    Time Temperature Precipitation Wind Pressure Humidity
    00:00 +16°C° 0.1 mm 1 mps 608 mmHg 92%
    01:00 +16°C° 0.1 mm 1 mps 608 mmHg 92%
    02:00 +16°C° 0 mm 1 mps 608 mmHg 91%
    03:00 +15°C° 0 mm 1 mps 607 mmHg 90%
    04:00 +14°C° 0 mm 0 mps 607 mmHg 88%
    05:00 +15°C° 0 mm 0 mps 608 mmHg 86%
    06:00 +15°C° 0 mm 0 mps 608 mmHg 83%
    07:00 +16°C° 0 mm 0 mps 608 mmHg 81%
    08:00 +19°C° 0 mm 1 mps 609 mmHg 76%
    09:00 +21°C° 0 mm 1 mps 610 mmHg 70%
    10:00 +23°C° 0 mm 2 mps 611 mmHg 65%
    11:00 +24°C° 0.4 mm 2 mps 610 mmHg 64%
    12:00 +24°C° 0.4 mm 2 mps 610 mmHg 63%
    13:00 +25°C° 0.4 mm 2 mps 610 mmHg 62%
    14:00 +24°C° 1.5 mm 2 mps 609 mmHg 66%
    15:00 +23°C° 1.5 mm 2 mps 609 mmHg 70%
    16:00 +23°C° 1.5 mm 2 mps 608 mmHg 74%
    17:00 +20°C° 1 mm 2 mps 608 mmHg 80%
    18:00 +19°C° 1 mm 2 mps 608 mmHg 86%
    19:00 +19°C° 1 mm 1 mps 608 mmHg 92%
    20:00 +18°C° 0.3 mm 1 mps 608 mmHg 92%
    21:00 +18°C° 0.3 mm 1 mps 609 mmHg 92%
    22:00 +18°C° 0.3 mm 1 mps 609 mmHg 92%
    23:00 +18°C° 0.1 mm 1 mps 609 mmHg 92%

    28 January, Tuesday

    Time Temperature Precipitation Wind Pressure Humidity
    00:00 +16°C° 0.1 mm 1 mps 609 mmHg 93%
    01:00 +15°C° 0.1 mm 0 mps 608 mmHg 93%
    02:00 +16°C° 0.1 mm 1 mps 608 mmHg 92%
    03:00 +16°C° 0.1 mm 1 mps 608 mmHg 91%
    04:00 +16°C° 0.1 mm 1 mps 607 mmHg 90%
    05:00 +16°C° 0 mm 1 mps 608 mmHg 87%
    06:00 +18°C° 0 mm 1 mps 608 mmHg 85%
    07:00 +16°C° 0 mm 0 mps 609 mmHg 83%
    08:00 +20°C° 0 mm 1 mps 609 mmHg 76%
    09:00 +22°C° 0 mm 1 mps 610 mmHg 68%
    10:00 +24°C° 0 mm 1 mps 611 mmHg 61%
    11:00 +24°C° 0.9 mm 2 mps 611 mmHg 62%
    12:00 +24°C° 0.9 mm 2 mps 610 mmHg 63%
    13:00 +25°C° 0.9 mm 2 mps 610 mmHg 64%
    14:00 +24°C° 2.3 mm 2 mps 609 mmHg 67%
    15:00 +24°C° 2.3 mm 2 mps 608 mmHg 69%
    16:00 +23°C° 2.3 mm 2 mps 608 mmHg 72%
    17:00 +21°C° 1.1 mm 2 mps 608 mmHg 78%
    18:00 +20°C° 1.1 mm 1 mps 607 mmHg 85%
    19:00 +19°C° 1.1 mm 1 mps 607 mmHg 91%
    20:00 +17°C° 0.8 mm 2 mps 607 mmHg 91%
    21:00 +17°C° 0.8 mm 2 mps 608 mmHg 92%
    22:00 +17°C° 0.8 mm 2 mps 608 mmHg 93%
    23:00 +17°C° 0.2 mm 2 mps 608 mmHg 90%

    29 January, Wednesday

    Time Temperature Precipitation Wind Pressure Humidity
    00:00 +18°C° 0.2 mm 1 mps 608 mmHg 88%
    01:00 +18°C° 0.2 mm 1 mps 607 mmHg 85%
    02:00 +18°C° 0.2 mm 1 mps 607 mmHg 85%
    03:00 +18°C° 0.2 mm 1 mps 607 mmHg 85%
    04:00 +16°C° 0.2 mm 1 mps 607 mmHg 85%
    05:00 +18°C° 0 mm 1 mps 607 mmHg 83%
    06:00 +18°C° 0 mm 1 mps 608 mmHg 81%
    07:00 +18°C° 0 mm 1 mps 608 mmHg 80%
    08:00 +20°C° 0.1 mm 1 mps 609 mmHg 75%
    09:00 +20°C° 0.1 mm 2 mps 609 mmHg 70%
    10:00 +23°C° 0.1 mm 2 mps 610 mmHg 65%
    11:00 +22°C° 0.7 mm 3 mps 610 mmHg 65%
    12:00 +22°C° 0.7 mm 3 mps 609 mmHg 66%
    13:00 +24°C° 0.7 mm 3 mps 609 mmHg 66%
    14:00 +22°C° 1.2 mm 3 mps 608 mmHg 68%
    15:00 +22°C° 1.2 mm 3 mps 608 mmHg 70%
    16:00 +22°C° 1.2 mm 3 mps 608 mmHg 72%
    17:00 +21°C° 2 mm 2 mps 607 mmHg 79%
    18:00 +19°C° 2 mm 2 mps 607 mmHg 86%
    19:00 +19°C° 2 mm 1 mps 607 mmHg 93%
    20:00 +18°C° 1.8 mm 1 mps 607 mmHg 94%
    21:00 +18°C° 1.8 mm 1 mps 608 mmHg 95%
    22:00 +16°C° 1.8 mm 0 mps 608 mmHg 96%
    23:00 +15°C° 0.7 mm 0 mps 608 mmHg 97%

    30 January, Thursday

    Time Temperature Precipitation Wind Pressure Humidity
    00:00 +15°C° 0.7 mm 0 mps 608 mmHg 97%
    01:00 +15°C° 0.7 mm 0 mps 607 mmHg 98%
    02:00 +15°C° 0.4 mm 0 mps 607 mmHg 97%
    03:00 +15°C° 0.4 mm 0 mps 607 mmHg 96%
    04:00 +15°C° 0.4 mm 0 mps 607 mmHg 96%
    05:00 +15°C° 0.2 mm 0 mps 607 mmHg 96%
    06:00 +15°C° 0.2 mm 0 mps 608 mmHg 95%
    07:00 +15°C° 0.2 mm 0 mps 608 mmHg 95%
    08:00 +18°C° 0.2 mm 1 mps 608 mmHg 89%
    09:00 +20°C° 0.2 mm 1 mps 609 mmHg 84%
    10:00 +20°C° 0.2 mm 2 mps 609 mmHg 78%
    11:00 +20°C° 0.8 mm 2 mps 609 mmHg 78%
    12:00 +21°C° 0.8 mm 2 mps 609 mmHg 77%
    13:00 +22°C° 0.8 mm 1 mps 608 mmHg 76%
    14:00 +22°C° 1.7 mm 1 mps 608 mmHg 78%
    15:00 +21°C° 1.7 mm 1 mps 608 mmHg 81%
    16:00 +21°C° 1.7 mm 1 mps 607 mmHg 83%
    17:00 +20°C° 1.3 mm 1 mps 607 mmHg 87%
    18:00 +19°C° 1.3 mm 1 mps 607 mmHg 91%
    19:00 +18°C° 1.3 mm 1 mps 608 mmHg 95%
    20:00 +18°C° 0.7 mm 1 mps 608 mmHg 96%
    21:00 +18°C° 0.7 mm 1 mps 608 mmHg 97%
    22:00 +17°C° 0.7 mm 2 mps 609 mmHg 97%
    23:00 +16°C° 1.7 mm 1 mps 609 mmHg 98%
    Show more